Location: Madrid
(40.4000°N, 3.6830°W)
Time: 13:17:37
(UTC+02:00)

ISS - Pass Details

Date: 23 May 2020
Orbit: 417 x 419 km, 51.6° (Epoch: 31 May)

Event Time Altitude Azimuth Distance (km) Brightness Sun altitude
Rises 00:41:17 0° 311° (NW) 2,368 1.1 -25.5°
Reaches altitude 10° 00:44:05 10° 336° (NNW) 1,503 0.1 -25.7°
Maximum altitude 00:46:06 15° 13° (NNE) 1,238 -0.8 -25.8°
Enters shadow 00:47:21 13° 37° (NE) 1,342 -0.9 -25.9°
